St. George, AK

7:20 PM AKDT on June 27, 2017 (GMT -0800)
Saint George

Weather History for PAPB - November, 2012

Change the Weather History Date:

Wednesday, November 7, 2012

  Actual Average Record
Temperature  
Mean Temperature 32 °F -  
Max Temperature 35 °F 37 °F 46 °F (2015)
Min Temperature 30 °F 30 °F 24 °F (2011)
Degree Days  
Heating Degree Days 32    
Moisture  
Dew Point 29 °F    
Average Humidity 85    
Maximum Humidity 100    
Minimum Humidity 69    
Precipitation  
Precipitation 0.01 in - - ()
Sea Level Pressure  
Sea Level Pressure 29.98 in    
Wind  
Wind Speed 19 mph (ENE)    
Max Wind Speed 31 mph    
Max Gust Speed 38 mph    
Visibility 6 miles    
Events Snow    
Averages and records for this station are not official NWS values.
T = Trace of Precipitation, MM = Missing Value Source: NWS Daily Summary

Daily Weather History Graph

Daily Weather History Graph

Search for Another Location

Airport or City:

Trip Planner

Search our weather history database for the weather conditions in past years. The results will help you decide how hot, cold, wet, or windy it might be!

Date:

Astronomy

Nov. 07, 2012 Rise Set
Actual Time 9:42 AM AKST 6:21 PM AKST
Civil Twilight 9:00 AM AKST 7:03 PM AKST
Nautical Twilight 8:15 AM AKST 7:48 PM AKST
Astronomical Twilight 7:31 AM AKST 8:32 PM AKST
Moon 1:34 AM AKST (11/7) 3:45 PM AKST (11/7)
Length of Visible Light 10h 02m
Length of Day
8h 39m
Last Quarter, 41% of the Moon is Illuminated
Nov 7
Last Quarter
Nov 13
New
Nov 20
First Quarter
Nov 28
Full
Dec 6
Last Quarter

Hourly Weather History & Observations

Time (AKST) Temp. Windchill Dew Point Humidity Pressure Visibility Wind Dir Wind Speed Gust Speed Precip Events Conditions
12:53 AM 30.9 °F 22.8 °F 21.9 °F 69% 30.31 in 10.0 mi ENE 9.2 mph - N/A   Overcast
1:32 AM 30.2 °F 21.3 °F 26.6 °F 86% 30.34 in 2.5 mi ENE 10.4 mph - 0.00 in Snow Light Snow
1:39 AM 32.0 °F 22.5 °F 28.4 °F 87% 30.34 in 4.0 mi East 12.7 mph - 0.00 in Snow Light Snow
1:53 AM 30.9 °F 21.2 °F 28.0 °F 89% 30.30 in 6.0 mi East 12.7 mph - 0.00 in Snow Light Snow
2:09 AM 32.0 °F 22.1 °F 26.6 °F 80% 30.32 in 10.0 mi East 13.8 mph - 0.00 in   Overcast
2:53 AM 32.0 °F 20.8 °F 26.1 °F 79% 30.27 in 10.0 mi East 17.3 mph - 0.00 in   Overcast
3:53 AM 32.0 °F 20.8 °F 25.0 °F 75% 30.24 in 10.0 mi East 17.3 mph 26.5 mph N/A   Overcast
4:07 AM 32.0 °F 19.5 °F 24.8 °F 75% 30.27 in 10.0 mi ENE 21.9 mph - N/A   Overcast
4:53 AM 30.9 °F 19.1 °F 24.1 °F 76% 30.22 in 10.0 mi East 18.4 mph - N/A   Overcast
5:53 AM 30.0 °F 18.3 °F 21.9 °F 72% 30.17 in 10.0 mi ENE 17.3 mph - N/A   Mostly Cloudy
6:22 AM 30.2 °F 18.5 °F 21.2 °F 69% 30.19 in 10.0 mi East 17.3 mph - N/A   Mostly Cloudy
6:53 AM 30.0 °F 17.5 °F 21.9 °F 72% 30.15 in 10.0 mi East 19.6 mph - N/A   Overcast
7:53 AM 30.0 °F 15.7 °F 21.9 °F 72% 30.10 in 10.0 mi ENE 26.5 mph 32.2 mph N/A   Mostly Cloudy
8:44 AM 30.2 °F 15.7 °F 23.0 °F 75% 30.10 in 10.0 mi ENE 27.6 mph 34.5 mph N/A   Scattered Clouds
8:53 AM 30.0 °F 16.6 °F 23.0 °F 75% 30.07 in 10.0 mi ENE 23.0 mph 33.4 mph N/A   Partly Cloudy
9:53 AM 30.9 °F 16.7 °F 24.1 °F 76% 30.04 in 9.0 mi ENE 27.6 mph 34.5 mph 0.00 in Snow Light Snow
10:50 AM 32.0 °F 17.6 °F 24.8 °F 75% 30.06 in 10.0 mi ENE 29.9 mph 34.5 mph 0.00 in   Mostly Cloudy
10:53 AM 32.0 °F 18.1 °F 25.0 °F 75% 30.01 in 10.0 mi ENE 27.6 mph 34.5 mph 0.00 in   Mostly Cloudy
11:53 AM 33.1 °F 19.1 °F 26.1 °F 75% 29.97 in 10.0 mi ENE 29.9 mph 38.0 mph N/A   Overcast
12:53 PM 34.0 °F 21.5 °F 27.0 °F 75% 29.94 in 10.0 mi ENE 24.2 mph 33.4 mph N/A   Overcast
1:53 PM 34.0 °F 22.4 °F 30.0 °F 85% 29.89 in 3.0 mi ENE 20.7 mph 32.2 mph 0.00 in Snow Light Snow
2:03 PM 33.8 °F 21.9 °F 30.2 °F 87% 29.92 in 3.0 mi ENE 21.9 mph 33.4 mph 0.00 in Snow Light Snow
2:37 PM 33.8 °F 21.3 °F 32.0 °F 93% 29.90 in 1.5 mi ENE 24.2 mph 33.4 mph 0.00 in Snow Light Snow
2:53 PM 34.0 °F 21.0 °F 32.0 °F 92% 29.86 in 2.5 mi ENE 26.5 mph - 0.00 in Snow Light Snow
3:05 PM 33.8 °F 21.3 °F 32.0 °F 93% 29.88 in 3.0 mi ENE 24.2 mph 31.1 mph 0.00 in Snow Light Snow
3:32 PM 33.8 °F 20.8 °F 32.0 °F 93% 29.85 in 2.5 mi ENE 26.5 mph - 0.00 in Snow Light Snow
3:44 PM 33.8 °F 21.0 °F 32.0 °F 93% 29.85 in 2.0 mi ENE 25.3 mph 35.7 mph 0.00 in Snow Light Snow
3:53 PM 34.0 °F 20.1 °F 32.0 °F 92% 29.81 in 1.2 mi ENE 31.1 mph 36.8 mph 0.00 in Snow Light Snow
4:08 PM 33.8 °F 20.3 °F 32.0 °F 93% 29.84 in 1.8 mi ENE 28.8 mph 34.5 mph 0.00 in Snow Light Snow
4:32 PM 33.8 °F 20.3 °F 30.2 °F 87% 29.83 in 1.8 mi ENE 28.8 mph 36.8 mph 0.00 in Snow Light Snow
4:35 PM 33.8 °F 19.9 °F 30.2 °F 87% 29.83 in 2.0 mi ENE 31.1 mph 36.8 mph 0.00 in Snow Light Snow
5:09 PM 33.8 °F 20.3 °F 32.0 °F 93% 29.81 in 8.0 mi ENE 28.8 mph 36.8 mph 0.00 in Snow Light Snow
5:53 PM 34.0 °F 20.8 °F 32.0 °F 92% 29.76 in 8.0 mi ENE 27.6 mph 34.5 mph 0.00 in   Overcast
6:53 PM 35.1 °F 23.3 °F 33.1 °F 92% 29.75 in 5.0 mi ENE 23.0 mph 33.4 mph 0.00 in   Overcast
7:53 PM 35.1 °F 22.5 °F 33.1 °F 92% 29.74 in 4.0 mi ENE 26.5 mph - 0.00 in   Overcast
8:53 PM 35.1 °F 22.5 °F 34.0 °F 96% 29.72 in 3.0 mi ENE 26.5 mph 33.4 mph 0.00 in   Overcast
9:53 PM 35.1 °F 23.3 °F 34.0 °F 96% 29.72 in 3.0 mi ENE 23.0 mph - 0.00 in   Overcast
10:29 PM 35.6 °F 24.2 °F 33.8 °F 93% 29.74 in 2.5 mi ENE 21.9 mph 28.8 mph 0.00 in   Overcast
10:48 PM 35.6 °F 24.5 °F 35.6 °F 100% 29.74 in 3.0 mi ENE 20.7 mph - 0.00 in   Overcast
10:53 PM 35.1 °F 23.5 °F 34.0 °F 96% 29.71 in 4.0 mi ENE 21.9 mph 27.6 mph 0.00 in   Overcast
11:53 PM 35.1 °F 23.3 °F 35.1 °F 100% 29.71 in 4.0 mi ENE 23.0 mph 26.5 mph N/A   Overcast